Chehalis, WA
on Thursday, January 10, 2013

Thursday
Previous Day Next Day
Daily Summary
 ActualAverage (KOLM)Record (KOLM)
Temperature
Mean Temperature °F 40°F  
Max Temperature 39°F 45°F 57°F (1961)
Min Temperature 33°F 34°F 8°F (1949)
Degree Days
Heating Degree Days 29 26  
Month to date heating degree days 260  
Since 1 July heating degree days 2530  
Cooling Degree Days 0 0  
Month to date cooling degree days 0  
Year to date cooling degree days 0  
Moisture
Dew Point 34°F   
Average Humidity 94    
Maximum Humidity 100    
Minimum Humidity 87    
Precipitation
Precipitation 0.00 in 0.26 in 1.56 in (2006)
Month to date precipitation 2.57  
Year to date precipitation 2.57  
Wind
Wind Speed 2 mph   
Max Wind Speed 7 mph   
Max Gust Speed mph   
Visibility 6 miles   
Events     

Key: T is trace of precipitation, MM is missing value
Source: NWS Daily Summary
Time(PST)TemperatureDew PointHumidity Pressure Visibility Wind DirectionWind SpeedGust SpeedPrecipitationEvents Conditions
12:15 AM 33.8°F 32.0°F 93% 29.99 in 5.0 miles Calm Calm - N/A   Overcast
12:35 AM 35.6°F 33.8°F 93% 29.99 in 7.0 miles SW 4.6 mph - N/A   Overcast
12:55 AM 35.6°F 33.8°F 93% 29.99 in 4.0 miles South 5.8 mph - N/A   Overcast
1:15 AM 33.8°F 33.8°F 100% 29.99 in 1.8 miles SSW 4.6 mph - N/A   Overcast
1:35 AM 33.8°F 32.0°F 93% 29.99 in 0.8 miles SW 5.8 mph - N/A   Overcast
1:55 AM 33.8°F 32.0°F 93% 30.00 in 1.0 miles SSW 4.6 mph - N/A   Overcast
2:15 AM 33.8°F 32.0°F 93% 30.00 in 1.8 miles SW 3.5 mph - N/A   Overcast
2:35 AM 33.8°F 33.8°F 100% 30.00 in 2.0 miles SW 4.6 mph - N/A   Overcast
2:55 AM 33.8°F 32.0°F 93% 30.00 in 2.5 miles SSW 4.6 mph - N/A   Overcast
3:15 AM 33.8°F 32.0°F 93% 30.00 in 7.0 miles SSW 4.6 mph - N/A   Overcast
3:35 AM 33.8°F 32.0°F 93% 30.01 in 8.0 miles South 5.8 mph - N/A   Overcast
3:55 AM 33.8°F 32.0°F 93% 30.01 in 8.0 miles SW 3.5 mph - N/A   Overcast
4:15 AM 35.6°F 32.0°F 87% 30.00 in 8.0 miles South 6.9 mph - N/A   Overcast
4:35 AM 35.6°F 32.0°F 87% 30.00 in 7.0 miles South 5.8 mph - N/A   Overcast
4:55 AM 33.8°F 32.0°F 93% 30.01 in 8.0 miles South 5.8 mph - N/A   Overcast
5:35 AM 33.8°F 32.0°F 93% 30.02 in 7.0 miles South 3.5 mph - N/A   Overcast
6:15 AM 35.6°F 32.0°F 87% 30.03 in 8.0 miles Calm Calm - N/A   Overcast
6:35 AM 35.6°F 33.8°F 93% 30.03 in 7.0 miles Calm Calm - N/A   Overcast
6:55 AM 35.6°F 33.8°F 93% 30.04 in 5.0 miles South 3.5 mph - N/A   Overcast
7:15 AM 35.6°F 33.8°F 93% 30.05 in 7.0 miles South 3.5 mph - N/A   Overcast
7:35 AM 35.6°F 33.8°F 93% 30.06 in 5.0 miles Calm Calm - N/A   Overcast
7:55 AM 35.6°F 33.8°F 93% 30.07 in 5.0 miles Calm Calm - N/A   Overcast
8:15 AM 35.6°F 33.8°F 93% 30.08 in 5.0 miles Calm Calm - N/A   Overcast
8:35 AM 35.6°F 33.8°F 93% 30.08 in 4.0 miles Calm Calm - N/A   Overcast
8:55 AM 35.6°F 33.8°F 93% 30.09 in 3.0 miles Calm Calm - N/A   Overcast
9:15 AM 35.6°F 33.8°F 93% 30.09 in 4.0 miles SW 4.6 mph - N/A   Overcast
9:35 AM 35.6°F 33.8°F 93% 30.09 in 9.0 miles Calm Calm - N/A   Overcast
9:55 AM 37.4°F 33.8°F 87% 30.10 in 3.0 miles Calm Calm - N/A   Overcast
10:15 AM 37.4°F 33.8°F 87% 30.10 in 3.0 miles SW 3.5 mph - N/A   Overcast
10:35 AM 37.4°F 33.8°F 87% 30.10 in 3.0 miles SW 4.6 mph - N/A   Overcast
10:55 AM 37.4°F 33.8°F 87% 30.10 in 4.0 miles SW 3.5 mph - N/A   Overcast
11:15 AM 37.4°F 35.6°F 93% 30.09 in 3.0 miles WSW 3.5 mph - N/A   Overcast
11:35 AM 37.4°F 33.8°F 87% 30.09 in 4.0 miles SW 3.5 mph - N/A   Overcast
12:15 PM 37.4°F 35.6°F 93% 30.09 in 7.0 miles Calm Calm - N/A   Overcast
12:35 PM 37.4°F 35.6°F 93% 30.08 in 4.0 miles Calm Calm - N/A   Overcast
12:55 PM 39.2°F 35.6°F 87% 30.09 in 10.0 miles SW 4.6 mph - N/A   Mostly Cloudy
1:15 PM 37.4°F 35.6°F 93% 30.09 in 5.0 miles SW 5.8 mph - N/A   Overcast
1:35 PM 37.4°F 35.6°F 93% 30.09 in 8.0 miles SSW 4.6 mph - N/A   Overcast
1:55 PM 37.4°F 35.6°F 93% 30.10 in 10.0 miles SSW 4.6 mph - N/A   Overcast
2:15 PM 37.4°F 35.6°F 93% 30.10 in 10.0 miles SW 3.5 mph - N/A   Overcast
2:35 PM 37.4°F 35.6°F 93% 30.10 in 10.0 miles Calm Calm - N/A   Overcast
2:55 PM 37.4°F 35.6°F 93% 30.10 in 9.0 miles Calm Calm - N/A   Overcast
3:15 PM 37.4°F 35.6°F 93% 30.10 in 8.0 miles Calm Calm - N/A   Overcast
3:35 PM 37.4°F 35.6°F 93% 30.10 in 5.0 miles Calm Calm - N/A   Overcast
3:55 PM 39.2°F 35.6°F 87% 30.10 in 6.0 miles Calm Calm - N/A   Overcast
4:15 PM 37.4°F 35.6°F 93% 30.11 in 10.0 miles Calm Calm - N/A   Overcast
4:35 PM 37.4°F 35.6°F 93% 30.11 in 10.0 miles Calm Calm - N/A   Overcast
4:55 PM 37.4°F 35.6°F 93% 30.10 in 10.0 miles Calm Calm - N/A   Mostly Cloudy
5:15 PM 37.4°F 35.6°F 93% 30.10 in 10.0 miles Calm Calm - N/A   Overcast
5:35 PM 35.6°F 35.6°F 100% 30.10 in 10.0 miles Calm Calm - N/A   Overcast
5:55 PM 35.6°F 35.6°F 100% 30.10 in 10.0 miles Calm Calm - N/A   Overcast
6:15 PM 35.6°F 35.6°F 100% 30.10 in 10.0 miles Calm Calm - N/A   Overcast
6:35 PM 35.6°F 35.6°F 100% 30.10 in 6.0 miles Calm Calm - N/A   Overcast
6:55 PM 35.6°F 35.6°F 100% 30.10 in 7.0 miles Calm Calm - N/A   Overcast
7:15 PM 35.6°F 35.6°F 100% 30.10 in 10.0 miles SW 3.5 mph - N/A   Overcast
7:35 PM 35.6°F 35.6°F 100% 30.11 in 10.0 miles Calm Calm - N/A   Overcast
7:55 PM 35.6°F 35.6°F 100% 30.11 in 8.0 miles Calm Calm - N/A   Overcast
8:15 PM 35.6°F 35.6°F 100% 30.11 in 7.0 miles Calm Calm - N/A   Overcast
8:35 PM 35.6°F 35.6°F 100% 30.11 in 5.0 miles Calm Calm - N/A   Overcast
8:55 PM 35.6°F 35.6°F 100% 30.11 in 7.0 miles ENE 3.5 mph - N/A   Overcast
9:15 PM 35.6°F 35.6°F 100% 30.12 in 10.0 miles Calm Calm - N/A   Overcast
9:35 PM 35.6°F 35.6°F 100% 30.12 in 10.0 miles Calm Calm - N/A   Overcast
9:55 PM 35.6°F 35.6°F 100% 30.12 in 10.0 miles Calm Calm - N/A   Overcast
10:15 PM 35.6°F 33.8°F 93% 30.12 in 8.0 miles Calm Calm - N/A   Overcast
10:35 PM 35.6°F 33.8°F 93% 30.12 in 6.0 miles Calm Calm - N/A   Overcast
10:55 PM 33.8°F 32.0°F 93% 30.13 in 7.0 miles Calm Calm - N/A   Overcast
11:15 PM 33.8°F 32.0°F 93% 30.13 in 6.0 miles Calm Calm - N/A   Overcast
11:35 PM 33.8°F 32.0°F 93% 30.13 in 5.0 miles Calm Calm - N/A   Overcast
11:55 PM 33.8°F 32.0°F 93% 30.13 in 7.0 miles Calm Calm - N/A   Overcast
Moon Phase
Jan. 10 Jan. 11 Jan. 18 Jan. 26 Feb. 03
Sunrise:07:54 AM (PST) Moon Rise:06:39 AM (PST)1/10
Sunset:04:45 PM (PST) Moon Set:04:00 PM (PST)1/10

Copyright © 2014 The Weather Underground, Inc.